Погода в Верхних Песках

Россия / Курганская область     56°10′53″N   62°36′04″E
темп.,
°C
ветер,
м/с
пор.,
м/с
влажн.,
%
обл.,
%
осадки,
мм/ч
давл.,
гПа
погр.,
м
24 мая, вт
вт2423:00+6ююв3697100 0.1 1004141
02:00+7ююв359899 0.0 1004113
05:00+9ююз3898100 0.0 1006289
08:00+11ююз468311 0.0 1007469
11:00+14ююз357481 0.0 1008885
14:00+12юв3695100 1.1 1009222
17:00+13вюв3597100 3.9 1009150
20:00+13всв2495100 0.8 1009105
25 мая, ср
ср2523:00+13всв3696100 2.8 1008121
02:00+12вюв4109689 0.6 1007188
05:00+12ююв41085100 0.6 1008179
08:00+15ююв4682100 0.0 1008159
11:00+19юв61064100 0.0 1008453
14:00+22ю7115690 0.0 10081101
17:00+23ююв586093 0.0 10081151
20:00+15юз1386100 2.4 100752
26 мая, чт
чт2623:00+14ююз228681 2.4 100833
02:00+13з4693100 0.0 1009223
05:00+10зсз489498 0.0 1009244
08:00+11зсз61088100 0.1 1010467
11:00+10ссз71193100 1.8 1010504
14:00+10ссз5890100 2.6 1012652
17:00+9ссз61187100 2.6 1011640
20:00+9сз51284100 0.0 1011491
27 мая, пт
пт2723:00+8сз81477100 0.1 1011597
02:00+7ссз71484100 0.7 1010809
05:00+6зсз5108998 0.9 1011364
08:00+9сз6107414 0.0 1012716
11:00+13зсз69565 0.0 10121418
14:00+15зсз584914 0.0 10122051
17:00+14зюз5866100 0.0 1012430
20:00+12з477217 0.0 1013187
28 мая, сб
сб2823:00+8зюз33805 0.0 101439
02:00+7ююз22775 0.0 101418
05:00+7ююв238399 0.0 101431
08:00+12ю46755 0.0 1014367
11:00+16ююз56625 0.0 10141054
14:00+18юз455947 0.3 10141412
17:00+19юз34606 1.2 10141271
20:00+16ююз34780 0.3 101571